Theta_e
346 346 346 346 349 351 351 351 353 353 352 352 353 355 356 356 356 359 360 361 360 359 357 350 345 345 345 343 343 343 343 343 343 344 345 344 344 347 347 343 343 345 344 342 342 341 339 340 345 347 340 328 320 317 318 321 322 322 320 320 330 336 331
346 346 346 346 349 351 351 351 353 354 352 352 352 354 355 355 355 357 359 360 361 360 358 350 344 345 343 343 345 345 343 343 343 343 344 343 342 345 345 343 343 345 345 344 343 344 342 340 343 346 343 331 320 315 316 318 318 318 319 318 322 328 328
345 346 344 345 348 350 350 348 351 354 353 352 352 353 354 355 355 356 357 359 360 360 359 350 342 344 344 343 346 346 344 344 343 343 343 342 341 343 344 343 344 345 345 345 347 348 347 343 341 342 340 331 320 315 315 316 317 317 319 322 322 324 325
345 346 345 346 348 349 349 349 351 355 354 352 353 353 354 354 355 356 356 358 359 360 361 352 341 343 344 344 346 347 346 345 344 343 342 342 341 342 343 343 345 346 345 346 348 350 349 346 341 336 334 328 318 315 315 315 318 317 319 323 325 324 325
347 348 346 346 348 349 349 350 353 357 354 352 353 353 354 355 355 355 356 357 359 359 359 353 344 342 344 344 345 347 348 346 345 343 342 342 342 341 342 342 344 346 346 345 346 348 349 346 341 333 330 326 319 316 317 316 317 317 318 321 324 325 325
349 348 346 346 347 349 350 352 354 356 354 352 352 354 356 357 356 357 356 357 360 361 361 357 349 343 343 344 345 347 348 347 346 345 344 343 343 342 341 341 343 345 345 345 345 348 348 345 341 334 328 324 319 317 318 318 317 317 318 320 323 325 325
347 347 345 345 346 347 349 352 355 356 355 353 352 354 357 359 358 358 357 358 361 363 364 361 354 345 343 345 346 347 348 348 347 346 345 345 344 344 343 342 343 344 345 346 346 347 348 344 340 336 328 322 319 317 318 318 317 318 319 319 320 323 325
343 344 344 345 347 347 349 353 355 356 356 354 353 355 357 359 358 357 358 359 361 365 366 363 355 347 345 346 347 347 347 347 347 346 346 347 346 346 346 345 343 344 346 348 348 348 347 343 339 337 331 323 319 318 318 319 319 318 318 319 319 320 322
342 341 343 344 345 347 349 351 353 356 357 355 355 356 356 358 359 358 358 359 361 366 366 362 354 348 346 347 347 346 347 348 347 345 346 347 347 347 348 347 346 344 346 348 350 350 348 344 340 336 331 325 321 320 319 318 319 319 320 318 318 320 319
344 342 343 343 343 345 345 345 348 354 357 356 355 356 357 359 360 360 360 360 362 365 363 359 357 353 347 345 346 346 346 348 347 346 347 346 346 347 347 347 346 345 346 348 351 351 349 345 341 337 332 327 322 321 319 317 318 320 321 319 317 320 320
345 346 345 344 344 346 346 345 348 354 357 357 356 356 357 360 362 362 361 360 362 364 362 359 360 360 350 344 346 346 345 346 347 347 346 345 346 346 346 346 347 346 346 348 351 352 349 346 343 340 335 328 322 319 318 317 318 319 320 319 318 318 320
346 348 348 348 349 350 349 349 350 354 357 357 356 356 357 360 362 363 362 360 360 363 362 360 362 363 356 347 344 345 345 345 347 347 346 346 347 347 348 349 351 351 349 347 350 352 349 346 344 343 338 329 321 319 319 317 317 318 318 318 318 319 319
349 348 350 351 352 351 350 350 351 355 357 358 358 356 357 360 361 362 361 360 359 359 360 359 359 361 360 354 348 345 345 344 344 346 347 347 348 350 352 353 354 356 355 351 351 352 352 349 345 343 340 333 324 320 318 317 316 317 318 318 318 319 319
357 355 354 355 355 354 352 350 352 355 356 357 359 358 357 358 360 360 359 358 357 357 358 359 358 358 361 360 355 349 345 343 343 345 346 347 347 350 354 356 356 358 358 356 354 353 354 353 348 343 341 337 328 321 317 316 316 316 317 318 318 318 319
363 362 361 358 355 353 351 350 353 356 356 357 359 359 359 358 358 359 358 356 355 354 356 357 356 357 358 360 360 355 347 344 344 344 346 348 350 351 354 356 357 358 359 359 356 354 354 355 351 345 342 339 332 324 318 315 316 316 317 318 317 318 319
359 359 361 360 357 354 350 348 350 354 357 358 358 359 360 359 359 359 358 356 354 353 354 355 356 357 357 358 360 358 353 348 346 346 347 350 352 352 353 356 357 358 358 359 357 355 354 354 352 348 343 341 336 327 320 316 316 316 317 318 317 318 319
345 348 349 350 353 355 349 345 345 350 356 358 358 359 359 359 360 360 359 358 356 353 353 354 356 356 356 358 359 360 359 354 350 350 351 351 353 355 355 356 357 357 357 357 358 357 355 354 353 349 345 343 339 330 322 318 317 317 318 318 317 318 319
337 342 342 341 348 354 352 345 341 344 351 354 357 359 359 360 361 361 361 361 358 356 353 353 357 357 356 358 360 361 361 358 357 356 355 356 358 358 357 357 357 357 357 357 357 357 357 355 353 350 347 345 341 333 325 320 317 318 319 318 317 318 319
335 338 341 345 352 354 352 350 347 344 346 349 352 355 357 358 360 361 362 361 360 358 355 354 355 356 357 359 362 364 363 362 362 361 360 360 359 359 359 359 358 357 356 357 358 357 357 355 352 350 347 344 342 337 328 321 318 318 319 318 318 318 318
336 335 336 342 348 351 353 355 354 350 349 349 348 350 354 358 361 362 362 362 362 360 357 357 358 358 359 360 363 365 365 365 365 365 363 361 360 359 360 359 358 357 357 357 358 358 358 355 351 349 346 344 342 339 332 325 321 319 320 319 318 317 318
337 337 335 336 340 348 355 359 358 356 354 351 351 355 358 359 362 362 362 362 363 362 359 358 360 361 360 362 365 365 366 367 367 366 364 362 360 359 359 358 357 356 356 358 358 358 357 355 351 347 344 343 342 340 336 331 327 323 320 318 318 317 317
334 335 336 335 335 342 350 353 356 358 356 354 357 361 360 359 362 364 363 362 363 363 360 359 363 364 362 363 366 367 368 368 366 364 363 361 360 360 360 358 356 355 357 358 359 358 357 355 352 347 343 342 342 341 339 336 333 327 321 318 319 318 318
333 333 335 335 333 335 339 340 345 353 357 358 360 361 361 361 364 366 364 363 364 363 361 362 364 365 364 367 369 369 368 367 365 363 362 360 360 361 359 357 356 357 358 358 358 358 357 355 353 349 346 344 342 342 341 339 337 331 323 319 320 320 320
332 332 332 333 332 333 335 335 341 352 357 357 359 360 361 363 366 367 365 365 365 364 363 365 366 367 369 370 370 369 368 366 364 361 359 358 359 359 356 355 356 358 358 358 359 358 356 355 353 350 349 346 344 343 342 340 338 332 324 321 323 323 322
332 332 332 332 331 332 335 336 344 354 357 357 357 360 362 365 368 367 366 366 367 365 365 367 369 370 371 370 369 368 366 363 362 359 355 355 356 355 353 353 355 357 358 357 358 357 356 355 353 351 349 348 346 345 343 341 339 331 325 325 325 323 325
333 333 332 332 334 342 347 349 353 358 359 356 354 358 362 367 369 368 366 367 367 365 366 369 370 370 369 368 367 364 358 355 355 354 352 352 353 353 353 353 354 356 357 356 356 357 356 355 353 351 350 349 347 345 344 342 337 331 328 327 324 325 331
337 338 336 333 340 354 361 360 360 359 357 353 352 359 366 368 369 368 367 367 368 367 368 369 369 367 366 365 363 358 353 352 351 349 349 351 353 354 353 353 353 355 357 356 356 356 355 354 353 351 349 347 345 343 342 340 336 333 331 325 323 330 336
337 337 338 336 341 353 361 362 360 356 355 355 356 362 368 368 368 368 367 368 369 369 369 368 367 364 364 363 360 357 355 352 349 348 351 353 354 353 353 353 354 355 356 356 356 355 354 354 353 350 348 345 342 340 340 339 338 336 331 325 325 333 337
343 343 348 352 355 357 360 360 359 357 358 359 361 366 368 368 368 367 368 368 369 370 370 369 366 363 361 359 355 352 349 346 344 346 349 351 352 352 353 354 354 354 355 355 354 353 352 351 350 348 347 345 342 339 337 336 336 334 329 328 332 336 336
353 352 355 361 363 363 363 361 359 360 362 363 365 367 367 367 367 367 367 369 370 370 369 365 361 358 356 353 346 341 341 344 344 343 345 348 349 350 352 353 353 354 354 354 354 352 351 349 348 346 345 343 341 338 336 335 335 334 333 334 335 334 331
358 357 357 363 366 365 365 364 362 363 365 366 367 367 367 367 367 367 368 368 368 367 363 356 351 349 347 344 342 340 344 346 345 345 347 349 349 349 351 352 354 353 352 352 352 351 349 349 347 345 344 342 339 337 337 337 336 335 336 335 333 331 328
358 359 358 360 363 363 365 366 366 366 367 367 367 367 368 367 366 368 368 366 363 358 351 343 340 340 341 343 344 345 346 347 347 348 350 351 350 350 351 351 352 352 351 351 350 349 348 348 347 346 344 341 338 337 337 337 335 334 334 334 332 330 328
356 358 357 356 358 361 363 365 367 367 367 368 368 368 367 366 365 363 360 357 352 344 338 335 335 338 343 346 347 347 348 348 348 350 352 352 351 350 351 351 350 349 350 350 348 348 348 347 347 346 343 341 339 337 336 336 335 334 334 332 330 327 325
355 357 357 358 359 360 361 363 364 365 366 367 367 366 363 362 361 356 353 354 352 344 338 338 340 342 345 346 346 347 349 350 351 351 351 351 350 350 350 350 349 348 348 348 347 348 347 347 347 346 343 341 339 338 336 335 335 334 331 328 328 327 326
356 357 358 360 360 358 359 360 360 361 363 363 363 363 362 361 361 359 358 359 355 348 343 343 344 343 345 347 349 351 352 352 352 351 350 349 348 348 347 347 348 348 347 347 347 347 347 346 345 344 342 341 340 337 336 336 334 331 329 329 331 331 329
354 355 356 356 354 353 356 357 355 356 357 357 357 358 357 357 358 357 354 352 348 343 340 341 343 344 346 349 351 351 351 351 351 350 349 348 347 347 347 347 347 346 347 347 346 346 345 344 342 341 340 340 339 337 336 335 334 333 332 333 334 332 329
352 354 355 354 351 352 355 355 354 354 353 352 350 349 350 353 353 350 344 341 341 340 339 340 344 347 350 350 349 349 349 349 348 348 348 347 346 346 345 346 346 345 346 345 344 344 344 342 339 338 338 338 338 337 335 334 335 335 334 333 332 330 329
348 351 355 355 354 354 355 355 354 354 353 352 351 351 353 354 352 346 342 340 340 341 343 347 350 350 350 349 347 347 348 348 347 347 347 346 346 345 344 344 344 344 344 343 342 343 342 339 337 337 336 336 337 337 336 335 335 334 333 332 331 331 332
Wind_Speed
27 27 28 28 31 35 35 36 37 38 40 42 44 44 42 40 39 38 38 38 38 38 37 37 37 36 35 34 33 33 33 32 31 30 29 28 26 25 25 24 23 23 22 21 20 20 19 18 19 20 17 12 12 11 10 11 11 10 10 13 16 15 12
30 29 29 29 32 36 37 37 37 39 40 42 45 45 43 42 42 41 40 39 39 39 38 38 38 37 36 35 34 34 33 32 31 31 30 29 28 27 26 26 25 24 23 21 20 19 18 19 20 21 19 14 11 11 11 11 11 11 11 11 15 16 13
32 31 33 34 34 36 38 38 38 40 41 42 45 47 46 45 45 44 43 41 40 39 39 39 40 39 38 36 36 35 34 33 32 31 31 30 29 29 28 27 26 25 23 21 20 19 18 19 20 21 21 17 12 11 12 11 11 11 12 11 12 14 13
34 31 33 35 36 37 38 38 39 42 42 42 44 47 48 47 46 45 44 42 42 41 40 40 40 41 40 39 38 37 35 34 33 32 31 30 30 30 29 29 28 26 25 23 22 22 22 22 20 20 21 18 14 13 12 12 11 11 12 12 12 12 12
36 34 32 32 33 34 36 37 38 41 42 41 43 46 47 47 47 46 44 43 42 42 41 40 41 42 41 40 40 38 37 35 34 32 31 31 30 30 30 30 30 28 27 25 25 25 25 24 22 21 21 19 16 15 14 13 13 12 12 13 14 13 11
38 35 33 31 31 31 34 36 36 39 41 41 42 44 45 45 45 45 44 43 42 41 41 41 41 42 42 42 41 39 38 37 36 34 33 32 31 31 32 31 31 30 28 27 27 27 27 26 24 22 21 20 18 17 17 16 14 13 13 14 15 15 13
38 35 33 32 32 31 32 34 35 36 37 38 39 41 43 43 43 43 43 43 42 42 42 42 42 43 44 43 42 40 40 39 38 37 36 34 33 33 33 32 32 31 30 29 29 29 30 28 26 24 22 21 20 19 19 18 16 14 14 14 15 16 15
36 35 34 34 31 28 27 29 32 33 35 38 39 41 42 42 43 44 43 43 43 42 43 44 44 44 44 44 43 42 41 41 40 39 38 37 35 35 34 33 33 32 31 30 30 31 32 29 26 25 24 22 21 21 20 19 18 16 15 15 15 16 17
38 39 39 36 29 25 25 27 29 32 36 40 41 42 43 43 43 44 44 44 44 44 44 45 45 43 43 43 43 43 42 42 41 40 39 39 38 37 36 35 34 33 32 32 32 33 33 30 26 25 25 24 23 22 22 20 20 18 16 15 16 17 17
39 41 37 34 30 28 29 30 32 35 39 42 43 42 43 44 43 43 43 43 43 44 45 46 44 43 43 43 44 44 43 43 42 41 40 40 39 38 38 37 36 34 34 33 33 34 34 31 28 27 27 26 25 24 23 23 22 20 18 16 16 16 17
36 35 32 32 32 34 34 33 35 39 41 44 45 43 43 44 42 41 43 43 43 43 45 45 43 42 43 43 44 44 44 43 43 42 42 41 40 40 39 38 38 37 36 35 35 35 35 32 30 31 30 28 27 26 25 26 25 22 19 18 17 17 17
34 31 31 31 31 34 35 34 36 39 41 43 45 44 44 44 43 41 41 43 41 41 43 43 41 41 43 44 44 44 44 44 44 43 43 42 41 40 39 38 37 37 37 38 37 37 37 35 34 34 33 30 29 29 27 27 26 23 20 20 19 18 19
32 32 33 32 31 32 32 32 35 38 40 42 44 45 45 44 44 42 41 42 41 40 42 42 41 41 42 43 44 45 45 45 45 44 43 42 41 40 39 38 36 36 37 37 37 38 39 38 38 37 36 32 31 30 28 27 27 25 23 22 20 20 20
28 29 31 31 29 30 31 31 32 35 39 41 41 44 44 44 45 44 42 43 42 40 40 41 42 42 42 43 43 44 45 45 44 44 43 43 42 41 38 37 36 36 35 35 36 36 34 35 39 40 37 35 33 31 28 28 28 27 26 24 22 21 22
22 22 26 28 28 30 32 31 30 31 35 38 39 41 43 43 44 44 43 43 43 42 40 40 42 43 43 43 43 43 44 44 43 44 43 42 42 41 40 38 36 36 36 35 35 32 29 31 38 41 39 37 35 32 30 29 30 30 28 27 25 24 23
20 19 20 22 25 29 29 29 30 30 32 36 38 39 41 42 43 45 45 44 44 43 41 40 43 44 44 45 43 42 42 43 43 43 43 42 42 41 41 39 37 36 36 36 35 33 31 33 38 40 40 39 36 34 32 32 32 32 30 27 26 25 25
22 22 23 19 20 25 27 27 30 31 32 35 37 39 41 42 43 44 43 42 43 45 43 42 43 45 45 45 43 42 41 41 42 42 42 43 42 40 40 39 38 36 36 37 37 35 35 37 38 39 39 39 38 36 35 34 35 34 31 28 27 27 26
25 22 26 28 28 30 30 29 30 33 34 36 37 39 41 42 42 42 42 42 42 44 43 42 44 45 45 45 43 41 41 40 41 41 41 41 40 39 39 38 38 37 36 38 38 37 37 38 39 38 37 37 38 37 37 36 36 35 32 28 27 27 26
26 22 21 27 32 32 31 30 31 33 34 35 36 37 40 43 43 44 44 42 41 42 42 42 44 45 45 44 42 40 40 40 40 40 39 39 38 37 37 37 37 36 36 36 36 36 36 37 38 37 36 35 36 37 36 36 36 35 30 26 26 27 25
24 25 23 22 26 31 31 31 31 31 32 32 31 33 36 40 42 43 43 40 39 41 42 41 42 44 44 43 41 40 40 40 39 38 37 37 36 34 33 35 35 34 34 35 35 35 35 36 37 36 35 35 34 34 35 36 37 34 28 25 26 26 24
22 21 22 21 21 25 29 29 30 31 31 29 28 30 34 38 39 41 42 40 39 41 42 40 40 42 43 42 41 41 41 39 38 36 35 34 32 30 29 30 31 31 32 33 34 35 35 35 36 35 35 34 33 33 34 35 35 32 28 26 26 24 23
29 26 26 27 27 25 25 26 28 30 30 28 29 31 32 35 37 38 40 41 40 41 41 39 39 40 42 42 41 41 41 40 37 35 32 31 29 27 25 26 26 26 29 32 32 32 33 32 33 35 35 34 33 32 32 34 34 30 25 24 23 22 22
31 32 32 32 33 32 29 28 29 31 31 29 30 32 32 33 35 37 39 40 40 40 41 40 39 40 40 39 39 39 39 38 36 33 29 27 25 24 24 25 24 23 27 30 31 31 30 29 29 32 35 35 33 32 31 32 33 29 24 23 22 20 20
34 37 37 35 35 37 36 34 34 34 33 31 31 32 32 33 35 37 39 40 40 40 40 39 38 38 37 35 32 31 31 32 32 30 26 23 23 22 21 21 23 24 26 29 30 30 29 28 26 29 32 33 33 32 31 31 32 29 25 25 25 21 18
38 40 39 37 37 39 41 39 37 36 33 32 32 32 33 35 36 38 40 40 39 39 39 38 36 35 34 31 28 26 27 27 28 28 24 21 22 21 18 18 20 21 23 26 28 28 27 27 27 28 30 30 29 29 29 30 30 27 25 26 24 20 18
27 29 33 34 32 30 34 38 37 36 34 31 31 33 34 36 36 37 39 39 38 39 38 37 35 32 31 29 27 25 25 23 25 25 23 21 21 19 16 16 16 17 19 22 24 26 27 27 27 28 29 28 26 26 27 27 28 28 28 28 23 19 18
14 15 22 31 30 23 27 33 32 31 30 29 31 34 36 36 36 37 38 38 37 38 37 36 34 31 29 28 26 25 23 21 21 21 20 20 19 17 16 15 14 15 18 20 22 24 26 27 26 26 27 25 23 24 26 26 28 30 30 27 23 21 20
15 14 19 28 33 29 26 28 27 27 27 28 32 36 37 37 38 38 38 37 36 36 36 35 32 30 29 29 27 25 23 20 19 19 17 17 16 15 15 14 13 16 19 21 21 22 23 25 25 23 23 22 20 21 23 26 29 32 30 25 24 25 24
10 8 8 13 24 29 27 27 27 26 27 30 34 37 37 38 39 39 38 37 35 35 35 34 33 32 31 30 27 24 22 19 18 19 18 17 16 16 15 14 15 18 20 22 22 20 19 22 22 21 22 23 20 19 21 24 25 26 26 25 23 24 22
2 6 6 8 15 19 21 24 26 26 28 31 35 36 37 39 40 39 38 37 36 36 36 35 33 32 30 28 26 23 22 20 18 19 19 18 18 17 16 15 16 19 21 21 22 20 19 20 21 21 22 22 21 21 23 22 20 19 20 21 21 19 18
4 1 6 10 13 16 18 22 25 28 30 31 34 36 36 38 40 39 38 38 37 36 35 33 31 30 29 28 25 23 21 19 17 17 17 18 18 17 17 18 19 20 21 21 21 19 19 20 21 23 23 22 23 25 25 23 21 21 20 20 21 21 20
2 3 1 4 8 14 20 23 26 29 30 30 33 33 34 37 39 38 37 36 34 33 33 32 31 31 30 28 25 23 21 19 18 17 17 17 17 17 17 18 19 20 21 21 21 20 20 21 23 24 23 23 24 26 25 24 23 22 22 24 23 22 21
6 2 1 2 2 7 16 24 27 30 30 31 31 32 35 37 37 36 35 33 31 32 32 32 32 31 30 28 26 24 22 19 19 19 18 18 17 17 17 17 16 16 19 20 21 21 22 23 24 24 25 25 25 25 25 24 23 23 24 24 22 21 20
8 8 10 11 9 9 15 21 26 28 30 31 30 31 34 33 30 30 30 27 26 29 31 31 30 30 29 26 24 23 21 19 18 19 18 18 17 16 16 16 15 15 18 19 20 21 22 21 21 22 25 27 26 25 23 22 23 23 21 17 17 19 21
15 17 18 20 18 16 19 22 24 25 27 29 29 28 29 28 26 26 25 21 21 27 30 29 27 26 24 22 20 20 20 20 19 18 16 15 13 13 14 16 16 16 17 18 18 18 17 17 17 19 23 27 27 25 23 22 22 20 16 14 14 17 18
22 21 19 20 19 18 20 23 23 23 24 26 27 27 28 29 27 25 24 23 23 25 25 23 21 21 20 19 18 18 19 20 19 17 14 11 10 11 13 15 16 16 15 16 17 16 15 16 16 16 19 23 24 23 21 19 18 17 16 15 15 15 15
25 24 20 19 19 19 21 23 24 25 25 26 26 26 26 26 24 22 22 22 22 21 19 19 20 19 19 19 18 17 17 17 17 15 14 12 11 11 12 13 15 16 16 15 15 15 15 16 15 14 15 17 17 18 18 17 15 14 15 15 15 14 14
22 23 23 23 22 22 23 25 26 26 25 25 25 24 24 22 20 20 20 19 19 19 20 20 20 18 18 19 18 17 16 15 15 14 13 13 12 12 13 13 15 16 16 15 14 14 16 16 15 14 14 13 11 12 15 14 13 13 13 13 14 14 14
Wind_Direction
202 199 202 202 199 199 204 205 202 203 204 204 204 202 201 201 200 200 201 204 205 204 204 204 205 209 211 213 214 213 214 214 215 216 216 216 214 212 217 222 221 219 223 228 229 232 232 220 214 225 229 214 210 217 211 210 212 212 211 200 197 209 215
196 194 199 200 199 199 202 205 203 202 204 204 204 203 201 201 201 202 202 204 205 205 204 204 205 208 210 211 212 212 213 213 214 215 215 215 214 214 218 223 223 221 223 228 231 231 225 213 210 221 229 221 211 216 213 212 216 215 220 217 206 206 205
189 191 195 198 200 202 203 205 204 203 203 204 204 204 202 202 202 202 203 204 205 205 205 205 206 209 211 210 211 212 212 212 213 215 214 214 215 214 218 224 224 222 223 224 225 223 220 217 216 220 228 230 219 215 216 215 215 215 217 218 207 201 201
187 191 194 196 200 204 205 206 204 202 202 203 204 205 204 203 203 203 203 204 205 205 205 206 207 209 211 211 212 212 212 212 213 215 215 215 216 216 218 223 224 223 224 221 217 219 221 223 225 226 228 231 225 218 220 217 214 213 213 216 210 199 197
185 192 193 195 199 204 206 206 204 201 201 201 203 205 205 203 203 202 203 204 205 206 207 208 209 210 212 213 213 212 213 214 214 215 217 216 216 218 219 222 223 223 224 222 217 219 223 225 229 231 229 229 227 222 221 219 215 215 211 212 216 206 198
181 186 187 191 196 203 207 207 206 202 200 201 202 204 203 202 201 201 201 203 205 206 208 210 211 211 213 214 213 213 213 215 216 217 218 218 217 219 220 222 223 223 223 223 221 220 222 228 234 237 235 230 226 223 223 221 216 217 213 210 214 213 208
175 178 182 188 193 200 205 207 207 205 202 201 203 203 201 199 199 198 199 200 202 203 205 209 212 213 213 213 213 213 214 215 217 219 220 220 220 220 221 222 222 223 224 224 223 221 222 230 239 243 241 232 224 222 223 223 217 217 220 216 212 212 212
170 173 183 190 192 195 201 203 204 205 204 203 203 203 200 198 198 197 197 197 199 200 203 207 213 214 213 213 213 214 215 217 218 220 221 221 221 221 221 222 223 224 223 222 222 223 225 232 240 244 241 233 226 221 221 223 218 215 222 225 215 210 211
170 178 190 192 187 185 194 204 209 209 206 205 205 204 201 199 198 197 196 196 197 198 203 209 214 216 213 212 213 215 216 217 219 221 221 221 221 221 221 222 224 224 223 221 221 224 227 232 239 244 241 234 227 221 221 223 219 216 222 226 219 212 212
172 181 190 186 179 181 192 202 210 211 208 206 206 205 202 200 199 198 196 196 196 198 205 211 213 215 215 213 214 216 215 217 219 221 221 222 223 223 223 225 226 227 226 222 220 223 228 232 236 239 237 231 227 223 224 226 222 217 221 226 222 214 212
169 179 182 180 180 185 193 200 204 207 207 206 206 205 204 201 200 200 198 197 197 197 205 209 208 211 217 217 215 216 216 217 218 220 222 224 224 225 226 227 228 228 227 224 220 221 228 232 233 233 231 229 231 231 228 227 224 219 221 227 223 215 214
164 171 172 178 182 186 192 198 202 205 204 206 206 205 205 203 201 201 200 199 198 198 204 206 203 206 215 219 218 218 218 218 218 220 223 223 224 225 225 224 223 226 227 226 222 222 229 233 233 232 231 230 234 235 231 227 226 222 221 225 223 215 215
162 168 172 179 182 185 191 196 202 205 204 205 207 206 207 205 202 202 202 201 200 200 204 205 203 205 212 217 219 218 219 219 219 219 221 223 222 222 221 220 218 220 224 225 223 224 230 234 234 233 233 233 232 233 232 228 226 225 221 222 222 218 217
163 168 171 176 179 183 189 195 202 205 204 206 207 206 207 207 204 203 203 203 202 202 203 204 204 205 209 214 217 217 219 221 221 220 220 222 223 220 218 217 215 215 219 220 222 224 227 232 235 234 233 233 231 231 233 229 226 226 222 219 220 219 218
164 165 163 172 181 185 191 196 200 205 205 206 208 207 207 207 205 204 204 205 204 203 203 204 204 206 209 212 214 216 219 221 221 221 220 221 221 220 218 216 214 215 217 219 220 221 219 223 232 234 233 233 232 231 232 229 226 226 222 218 218 218 219
174 167 160 173 186 190 196 198 200 206 207 206 208 208 207 207 207 205 205 206 205 203 203 204 205 205 208 212 214 215 217 219 220 220 219 219 220 220 218 216 214 215 217 219 220 219 217 218 226 232 233 232 232 232 231 229 228 228 224 219 219 219 219
207 183 174 193 206 203 204 202 201 206 208 207 209 209 208 208 208 207 205 205 205 204 203 205 206 206 208 211 213 213 214 217 218 218 218 218 218 218 217 216 214 214 217 220 221 219 219 221 224 228 231 232 232 231 231 230 230 229 225 220 219 219 218
225 200 185 197 209 209 206 203 202 205 208 210 210 209 209 208 207 207 205 205 205 203 203 206 207 206 207 209 210 210 213 215 215 216 217 215 214 214 216 216 215 214 216 220 222 219 218 221 223 227 230 231 231 232 232 231 232 231 227 222 220 218 218
224 225 210 199 198 204 209 206 203 205 207 209 210 210 210 209 207 207 206 205 204 201 201 205 207 205 205 207 207 207 209 212 213 214 214 213 212 212 214 214 214 215 216 219 221 219 217 220 223 227 230 230 231 232 231 231 233 232 227 224 222 220 219
221 222 228 219 203 203 208 206 205 206 207 208 210 212 211 208 208 208 205 205 204 201 201 204 206 204 202 204 204 204 207 210 210 210 212 213 213 213 215 216 216 217 217 218 220 218 218 220 223 226 228 228 229 230 230 232 234 230 227 225 222 220 219
243 231 235 239 229 211 203 203 205 206 207 210 209 207 205 205 207 206 203 204 204 201 200 202 203 201 199 200 202 203 205 205 206 209 213 215 216 216 217 217 218 217 216 217 221 222 222 223 223 224 225 225 227 227 227 231 233 230 229 224 217 216 218
253 254 250 249 251 238 215 209 211 210 210 210 202 198 201 203 204 202 201 202 203 201 200 202 201 197 196 198 200 202 203 205 208 213 215 215 215 215 214 216 219 218 215 216 220 224 226 226 225 225 224 223 224 222 222 227 232 231 226 218 213 216 218
253 255 254 251 254 252 238 228 224 218 213 207 198 196 200 199 198 198 197 198 200 200 199 200 198 194 193 196 199 201 205 209 213 214 214 214 213 213 216 219 219 216 212 213 217 221 225 227 226 225 223 222 222 221 220 226 230 228 219 212 212 215 216
250 252 255 251 248 249 243 233 223 216 211 206 199 197 197 195 194 194 194 194 195 195 196 197 194 191 190 192 194 197 203 209 212 212 212 207 205 209 214 212 208 207 209 214 217 220 223 228 228 224 222 223 223 222 222 226 230 230 221 211 209 210 213
241 242 246 247 247 245 238 226 214 208 205 201 196 195 194 193 191 191 191 191 189 188 190 192 190 188 189 190 193 197 202 206 209 211 210 202 198 203 205 200 199 204 211 216 218 220 224 226 225 222 221 221 219 218 222 225 228 226 211 200 205 215 217
243 239 235 240 251 246 223 208 199 195 195 197 197 194 192 190 188 188 190 188 185 184 186 186 185 185 187 188 190 195 200 202 205 208 208 203 198 196 196 196 193 197 209 216 216 219 222 223 221 220 219 217 214 215 220 223 225 222 209 205 216 223 210
260 262 246 240 243 229 198 190 190 192 197 200 197 190 186 186 186 186 187 185 181 181 181 181 183 183 181 181 183 188 192 194 198 201 201 198 194 190 192 196 190 192 208 217 214 215 219 220 219 218 219 219 218 220 224 225 226 222 216 219 228 220 202
255 270 272 247 227 210 194 188 191 196 198 195 190 185 183 184 183 182 183 181 178 176 175 176 176 174 172 173 175 180 185 189 193 195 192 190 189 187 189 192 188 194 209 218 218 216 220 221 220 220 223 225 224 225 228 230 230 229 229 233 230 216 206
237 228 274 234 199 191 190 187 187 191 190 186 183 182 181 181 180 178 177 175 173 171 169 169 169 168 169 173 175 180 187 192 194 190 185 186 188 186 186 188 192 201 211 218 220 219 219 221 221 221 225 227 226 227 230 232 231 230 231 228 217 211 217
247 189 212 191 173 175 179 180 182 182 180 179 178 178 179 178 175 172 170 168 167 165 163 165 167 169 172 175 178 181 185 189 189 182 180 184 187 185 184 188 197 208 213 216 219 221 220 219 218 217 218 218 216 216 220 223 218 208 206 207 206 210 223
355 232 207 187 176 176 172 172 175 172 170 172 172 172 174 174 169 164 163 162 162 161 162 165 167 168 171 175 175 175 176 178 177 173 175 181 184 185 187 193 202 210 213 217 223 225 223 220 217 216 214 209 205 207 209 210 207 202 201 204 209 215 220
336 26 267 208 192 184 174 168 167 164 161 162 164 164 164 164 161 157 156 157 159 160 162 164 163 162 166 168 168 168 172 173 170 170 175 180 184 188 193 199 207 213 218 223 227 228 226 222 218 218 217 211 206 205 204 205 209 211 207 206 213 220 225
209 177 212 231 216 177 164 158 156 155 154 153 153 153 153 154 155 154 153 154 156 157 157 158 158 159 162 165 167 170 172 172 173 176 180 183 187 191 197 203 211 219 224 227 226 227 227 224 221 221 218 212 207 205 205 208 210 205 201 208 222 228 226
166 142 135 144 155 162 156 150 147 147 146 143 142 145 147 147 147 147 146 145 147 152 155 156 157 160 163 164 166 168 168 168 174 181 183 185 188 192 199 205 210 214 220 221 220 221 221 221 222 221 216 211 207 205 206 206 201 198 205 222 233 228 225
119 122 125 133 143 152 148 142 137 134 131 129 129 133 135 132 128 130 132 133 142 154 157 155 155 158 159 158 159 162 165 170 179 185 185 184 187 191 195 201 205 208 214 217 217 219 219 218 217 215 212 212 212 210 208 204 197 202 219 231 227 224 227
101 105 115 127 133 136 132 127 124 121 119 122 125 125 124 123 123 129 138 143 148 153 155 153 153 153 151 152 154 159 166 174 181 185 184 183 190 195 195 197 201 206 214 220 222 224 223 216 211 207 206 209 213 212 210 207 205 208 216 217 217 221 221
91 93 99 110 115 115 111 107 107 107 108 113 118 117 116 119 124 133 142 146 147 150 152 151 150 148 148 154 154 151 160 174 180 181 183 185 191 199 201 204 208 212 216 218 219 219 213 206 203 199 193 194 200 201 199 203 209 210 208 210 213 214 214
82 86 90 92 92 95 95 94 95 97 99 104 109 109 110 114 121 129 137 141 144 148 147 145 147 150 155 162 160 151 158 176 180 177 185 194 196 198 201 207 215 218 216 210 207 207 203 195 191 192 188 183 186 189 190 193 200 203 203 208 211 213 217